EST,Max TemperatureF,Mean TemperatureF,Min TemperatureF,Max Dew PointF,MeanDew PointF,Min DewpointF,Max Humidity, Mean Humidity, Min Humidity, Max Sea Level PressureIn, Mean Sea Level PressureIn, Min Sea Level PressureIn, Max VisibilityMiles, Mean VisibilityMiles, Min VisibilityMiles, Max Wind SpeedMPH, Mean Wind SpeedMPH, Max Gust SpeedMPH,PrecipitationIn, CloudCover, Events, WindDirDegrees
2013-2-1,21,18,14,16,11,6,92,76,65,30.33,30.08,29.85,10,5,0,30,24,38,0.01,8,Fog-Snow,257
2013-2-2,24,19,14,22,15,5,93,83,64,30.30,30.07,29.96,10,3,0,18,11,21,0.03,8,Fog-Snow,200
2013-2-3,21,18,16,20,16,12,93,84,71,30.04,29.94,29.87,10,6,1,25,10,32,0.00,8,Snow,256
2013-2-4,24,20,17,22,18,11,100,87,68,30.06,29.97,29.87,10,3,1,23,10,,0.03,8,Snow,218
2013-2-5,28,24,21,25,21,19,93,86,72,29.95,29.90,29.86,10,7,1,15,3,,0.02,7,Snow,245
2013-2-6,28,24,21,27,19,13,93,76,58,30.35,30.17,29.93,10,9,5,22,12,29,0.00,5,,335
2013-2-7,45,34,24,28,22,14,69,60,47,30.31,30.13,29.85,10,10,10,20,8,29,0.00,4,,139
2013-2-8,42,34,26,37,28,23,100,90,67,30.27,29.91,29.71,10,5,1,29,20,39,0.18,8,Rain-Snow,289
2013-2-9,28,26,24,23,20,19,88,80,72,30.46,30.39,30.30,10,10,10,20,11,24,0.00,4,,350
2013-2-10,48,36,24,31,20,17,77,52,34,30.33,30.09,29.79,10,10,10,22,10,31,0.00,4,,152
2013-2-11,50,42,33,44,33,24,87,72,58,29.91,29.76,29.66,10,10,10,33,21,45,0.00,7,,220
2013-2-12,33,32,30,27,25,24,85,76,70,30.09,30.00,29.93,10,10,8,21,14,26,0.00,6,,257
2013-2-13,30,28,25,25,23,21,88,78,69,29.93,29.85,29.79,10,9,7,9,6,,0.00,4,,292
2013-2-14,39,34,28,34,29,23,87,78,67,29.88,29.83,29.76,10,8,5,24,12,34,0.00,7,,183
2013-2-15,36,32,27,27,23,16,88,74,61,30.12,30.03,29.90,10,9,2,17,12,31,0.02,7,Snow,281
2013-2-16,27,24,21,21,17,13,93,77,58,30.10,30.01,29.98,10,7,0,23,9,29,0.00,7,Fog-Snow,308
2013-2-17,21,19,17,18,13,7,86,77,59,30.27,30.09,29.97,10,8,2,20,16,22,0.00,6,Snow,315
2013-2-18,48,30,15,29,16,6,71,55,45,30.28,30.04,29.72,10,10,10,24,14,37,0.00,2,,158
2013-2-19,50,34,18,37,24,10,93,77,44,29.98,29.76,29.55,10,7,0,29,20,38,0.17,8,Fog-Rain-Snow,230
2013-2-20,23,20,17,16,13,10,93,73,63,30.24,30.10,29.99,10,5,0,30,22,38,0.00,8,Fog-Snow,267
2013-2-21,23,21,19,17,13,10,82,72,63,30.40,30.33,30.22,10,9,5,20,12,28,0.00,7,Snow,353
2013-2-22,39,29,19,36,27,13,93,79,63,30.32,29.99,29.91,10,9,4,22,11,28,0.05,7,Rain,163
2013-2-23,36,33,30,30,26,23,92,76,69,29.97,29.93,29.89,10,10,10,21,10,,0.00,8,,257
2013-2-24,33,30,26,27,23,21,88,76,69,30.16,30.03,29.92,10,10,3,18,12,,0.00,7,Snow,274
2013-2-25,36,30,25,30,26,23,93,82,69,30.23,30.18,30.10,10,8,4,15,4,,0.00,0,,43
2013-2-26,39,34,28,34,29,22,88,79,55,30.09,29.75,29.50,10,9,2,17,10,28,0.47,5,Rain,99
2013-2-27,43,38,33,39,35,30,100,89,76,29.64,29.58,29.48,10,9,4,16,12,26,0.23,8,Rain,211
2013-2-28,33,32,30,32,30,28,96,91,81,29.90,29.70,29.58,10,7,1,20,12,25,0.03,8,Snow,276